[[{"header":{"parameterUnit":"m.s-1","parameterCategory":1,"la1":30.2991,"la2":30.254,"lo1":-89.0895,"lo2":-89.0444,"dy":0.0017,"dx":0.0017,"nx":28,"ny":28,"refTime":"2025-11-22T09:00:00:Z","depth":0,"parameterNumber":2,"parameterNumberName":"U-component_of_WINDS"},"data":[0,0,0,0,0,0,0,0,0,0,0,0,0,0,0,0,0,0,0,0,0,0,0,0,0,0,0,0,0,0,0,0,0,0,0,0,0,0,0,0,0,0,0,0,0,0,0,0,0,0,0,0,0,0,0,0,0,0,1.1888,1.1888,0,1.1924,1.1924,1.1924,1.1905,1.1904,1.1903,1.1902,1.194,1.1942,1.1944,0,0,0,0,0,0,0,0,0,0,0,0,0,1.1803,1.1805,1.1887,1.1888,1.1888,1.1923,1.1924,1.1924,1.1905,1.1904,1.1902,1.1901,1.1939,1.1942,1.1944,0,0,0,0,0,0,0,0,0,0,0,0,0,1.184,1.1806,1.1887,1.1883,1.1883,1.1923,1.1924,1.1925,1.1905,1.1904,1.1902,1.1901,1.1939,1.1942,1.1944,1.1992,0,0,1.1953,1.1955,0,0,0,0,0,0,0,0,1.1838,1.1843,1.1883,1.1883,1.1883,1.1908,1.1908,1.1947,1.1905,1.1897,1.1902,1.19,1.1931,1.1934,1.1944,1.1994,1.1996,1.1954,1.1955,1.1957,1.1957,0,0,0,0,0,0,0,1.1835,1.1841,1.1902,1.1884,1.1884,1.1879,1.1883,1.1916,1.1922,1.1897,1.1896,1.19,1.193,1.1942,1.1945,1.1996,1.1954,1.1956,1.1958,1.1959,1.2088,1.2089,0,0,0,0,0,0,1.1833,1.1839,1.1901,1.1903,1.1856,1.1882,1.1886,1.1902,1.1921,1.1923,1.1902,1.1899,1.1937,1.1942,1.1946,1.2004,1.1957,1.1959,1.1961,1.2086,1.2088,1.209,0,0,0,0,0,0,1.1831,1.1838,1.1899,1.1871,1.1878,1.1885,1.1903,1.1903,1.1914,1.1924,1.1926,1.1912,1.1936,1.1942,1.1981,1.2005,1.1961,1.1963,1.2084,1.2087,1.2089,1.2119,0,0,0,0,0,0,1.1829,1.1838,1.1856,1.1871,1.188,1.1933,1.1904,1.1905,1.1919,1.1916,1.1934,1.1936,1.1936,1.1977,1.1984,1.2008,1.1966,1.2082,1.2085,1.2088,1.2116,1.2123,1.2128,0,0,0,0,0,1.1826,1.1863,1.1857,1.1864,1.1902,1.1934,1.1939,1.1938,1.1921,1.1939,1.1946,1.1935,1.2001,1.1981,1.1989,1.2014,1.2081,1.2084,1.2088,1.2114,1.2121,1.2128,0,0,0,0,0,0,1.185,1.1865,1.1858,1.1901,1.1917,1.1931,1.1954,1.1946,1.1967,1.1963,1.1961,1.1965,1.2006,1.2014,1.1991,1.2062,1.2038,1.2044,1.2055,1.2063,1.2068,1.2066,1.1968,0,0,0,0,0,1.1861,1.1885,1.1897,1.1934,1.1942,1.1947,1.196,1.1958,1.1974,1.1981,1.199,1.2007,1.2031,1.2047,1.207,1.2117,1.2121,1.2139,1.2145,1.215,1.2155,1.2181,1.2189,1.2102,1.2102,1.2102,0,0,1.1882,1.1893,1.1909,1.1939,1.195,1.1977,1.1952,1.198,1.2,1.1985,1.2022,1.203,1.2048,1.2092,1.2111,1.21,1.2179,1.2155,1.2158,1.2161,1.2185,1.2194,1.2201,1.2105,1.2104,1.2104,0,0,1.1935,1.1946,1.1978,1.199,1.2008,1.2011,1.2019,1.2035,1.2039,1.2076,1.2066,1.2089,1.2131,1.2145,1.2157,1.2217,1.2208,1.2224,1.2255,1.228,1.2287,1.2293,1.2315,1.2323,1.2229,1.2229,1.2229,0,1.196,1.1998,1.1996,1.2025,1.2039,1.2026,1.206,1.2072,1.2096,1.2107,1.2093,1.2146,1.2158,1.2204,1.2219,1.2229,1.2238,1.2222,1.2286,1.2292,1.2298,1.2319,1.2327,1.2231,1.2231,1.2231,1.223,0,1.2028,1.2055,1.2079,1.2103,1.2119,1.215,1.2153,1.2171,1.2167,1.2172,1.221,1.2224,1.2249,1.226,1.2257,1.2307,1.2299,1.2286,1.2263,1.2308,1.2328,1.2335,1.2234,1.2233,1.2232,1.2232,0,0,1.2097,1.2119,1.2128,1.2139,1.2158,1.2179,1.221,1.2235,1.225,1.2268,1.2294,1.2331,1.2319,1.2333,1.2332,1.2354,1.2401,1.2338,1.2339,1.235,1.2457,1.2467,1.2476,1.2395,1.2396,1.2398,1.2455,0,1.2151,1.2205,1.2204,1.2254,1.2279,1.2268,1.2295,1.231,1.2315,1.2338,1.2344,1.237,1.2352,1.2361,1.2383,1.239,1.2422,1.2386,1.242,1.2421,1.2416,1.2486,1.2496,1.255,1.2463,1.2464,1.2465,0,1.2221,1.2241,1.2294,1.231,1.232,1.2345,1.2368,1.2389,1.2407,1.2409,1.2425,1.2421,1.2453,1.2428,1.2473,1.2449,1.2462,1.2468,1.2471,1.2474,1.2446,1.2491,1.2567,1.2575,1.2477,1.2476,1.2475,0,1.2267,1.2307,1.2343,1.2353,1.2373,1.239,1.2399,1.2415,1.243,1.2451,1.2461,1.2485,1.2499,1.2518,1.252,1.2502,1.2565,1.2541,1.2569,1.2569,1.2583,1.2582,1.2662,1.2591,1.2591,1.2591,1.2591,0,1.2327,1.236,1.2364,1.2386,1.2423,1.2422,1.2458,1.2466,1.248,1.2505,1.2497,1.252,1.2521,1.2546,1.2548,1.2585,1.2591,1.2594,1.2594,1.2595,1.2595,1.2604,1.26,1.2593,1.2593,1.2592,1.2592,0,1.2384,1.2388,1.2427,1.2443,1.2447,1.2474,1.2487,1.2509,1.2514,1.2545,1.2552,1.256,1.2588,1.2592,1.2625,1.2627,1.2671,1.2668,1.2666,1.2665,1.2693,1.269,1.2782,1.2795,1.2716,1.2717,1.2717,0,1.2422,1.2447,1.2465,1.2481,1.2491,1.2516,1.2532,1.2532,1.2549,1.2571,1.2591,1.2618,1.264,1.2685,1.2694,1.2719,1.2716,1.2747,1.272,1.272,1.2717,1.2716,1.2718,1.2752,1.2753,1.2754,1.2754,0,1.249,1.2491,1.2514,1.2537,1.2556,1.2575,1.2593,1.2606,1.2609,1.2628,1.2657,1.2674,1.2707,1.2735,1.276,1.277,1.2763,1.2763,1.277,1.2771,1.2769,1.2771,1.268,1.276,1.276,1.2759,1.2759,1.2759,1.2539,1.2561,1.2577,1.2603,1.2616,1.2633,1.2655,1.2663,1.2686,1.2713,1.2712,1.2744,1.2761,1.2794,1.2806,1.2831,1.2822,1.2833,1.2836,1.2839,1.2842,1.2765,1.2836,1.2836,1.2836,1.2836,1.2835,0,1.2607,1.2617,1.2641,1.2666,1.2686,1.2678,1.2697,1.2715,1.2742,1.2759,1.2781,1.2814,1.2841,1.2852,1.2878,1.2896,1.2894,1.2903,1.2902,1.2905,1.2849,1.2839,1.2905,1.2905,1.2905,1.2905,1.2905,1.2905,1.2644,1.2681,1.2684,1.2728,1.2738,1.2768,1.278,1.2796,1.2809,1.2847,1.2869,1.2876,1.2891,1.2918,1.2943,1.2945,1.2956,1.2967,1.2968,1.2916,1.2909,1.2902,1.2893,1.2969,1.2969,1.3022,1.3023,1.3023]},{"header":{"parameterUnit":"m.s-1","parameterCategory":1,"la1":30.2991,"la2":30.254,"lo1":-89.0895,"lo2":-89.0444,"dy":0.0017,"dx":0.0017,"nx":28,"ny":28,"refTime":"2025-11-22T09:00:00:Z","depth":0,"parameterNumber":3,"parameterNumberName":"V-component_of_WINDS"},"data":[0,0,0,0,0,0,0,0,0,0,0,0,0,0,0,0,0,0,0,0,0,0,0,0,0,0,0,0,0,0,0,0,0,0,0,0,0,0,0,0,0,0,0,0,0,0,0,0,0,0,0,0,0,0,0,0,0,0,1.2552,1.2553,0,1.2583,1.2583,1.2584,1.2585,1.2584,1.2584,1.2584,1.2613,1.2614,1.2616,0,0,0,0,0,0,0,0,0,0,0,0,0,1.2493,1.2494,1.2552,1.2553,1.2553,1.2583,1.2583,1.2584,1.2585,1.2584,1.2584,1.2583,1.2613,1.2614,1.2616,0,0,0,0,0,0,0,0,0,0,0,0,0,1.252,1.2494,1.2552,1.2557,1.2558,1.2583,1.2584,1.2584,1.2585,1.2584,1.2584,1.2583,1.2613,1.2614,1.2616,1.2638,0,0,1.2621,1.2622,0,0,0,0,0,0,0,0,1.2519,1.2523,1.2556,1.2557,1.2558,1.258,1.2573,1.2602,1.2585,1.2575,1.2584,1.2583,1.2602,1.2605,1.2612,1.2639,1.264,1.2621,1.2622,1.2623,1.2624,0,0,0,0,0,0,0,1.2517,1.2521,1.2565,1.2557,1.2558,1.2557,1.2561,1.2579,1.2591,1.2575,1.2576,1.2579,1.2603,1.261,1.2613,1.2641,1.2621,1.2623,1.2624,1.2624,1.2686,1.2687,0,0,0,0,0,0,1.2514,1.252,1.2564,1.2565,1.2537,1.2559,1.2563,1.2573,1.2591,1.2593,1.258,1.2579,1.2608,1.2611,1.2614,1.264,1.2623,1.2625,1.2626,1.2686,1.2687,1.2687,0,0,0,0,0,0,1.2513,1.2518,1.2562,1.2543,1.2548,1.256,1.2572,1.2574,1.2581,1.2594,1.2596,1.2585,1.2607,1.2611,1.2632,1.2641,1.2625,1.2627,1.2685,1.2686,1.2687,1.2693,0,0,0,0,0,0,1.2511,1.2518,1.2527,1.2543,1.2549,1.258,1.2573,1.2575,1.2585,1.2584,1.26,1.2602,1.2607,1.2629,1.2633,1.2643,1.2628,1.2684,1.2685,1.2687,1.2692,1.2694,1.2695,0,0,0,0,0,1.2509,1.2527,1.2527,1.2532,1.2561,1.2581,1.2585,1.2591,1.2585,1.2594,1.2602,1.2602,1.2639,1.2631,1.2636,1.2646,1.2684,1.2685,1.2686,1.2691,1.2693,1.2695,0,0,0,0,0,0,1.2511,1.2529,1.2529,1.2553,1.2565,1.2581,1.2592,1.2593,1.2607,1.2606,1.2612,1.2616,1.2636,1.2643,1.2634,1.2668,1.2661,1.2663,1.2662,1.2665,1.2667,1.2664,1.263,0,0,0,0,0,1.2514,1.2529,1.2544,1.2563,1.257,1.258,1.2589,1.2592,1.2605,1.2611,1.262,1.2632,1.2647,1.2656,1.267,1.2693,1.2696,1.2702,1.2704,1.2705,1.2707,1.2719,1.2722,1.2692,1.2692,1.2692,0,0,1.252,1.2532,1.2542,1.2564,1.2574,1.2589,1.2584,1.2601,1.2612,1.2613,1.2633,1.264,1.2654,1.2675,1.2685,1.2682,1.2716,1.2707,1.2708,1.2709,1.2721,1.2724,1.2726,1.2693,1.2693,1.2692,0,0,1.254,1.2551,1.2568,1.2578,1.2594,1.26,1.2604,1.262,1.2625,1.2645,1.2646,1.2659,1.2684,1.2694,1.2702,1.2725,1.2725,1.2729,1.2739,1.2751,1.2753,1.2755,1.2763,1.2766,1.2731,1.2731,1.2731,0,1.2546,1.257,1.2576,1.2593,1.2603,1.2605,1.2621,1.2631,1.265,1.2656,1.2652,1.2684,1.2693,1.2717,1.2722,1.2729,1.2733,1.2728,1.2752,1.2754,1.2756,1.2764,1.2767,1.2732,1.2732,1.2732,1.2732,0,1.2576,1.2592,1.2604,1.2623,1.2634,1.2651,1.2659,1.2669,1.2672,1.2679,1.2699,1.271,1.2727,1.2732,1.2735,1.2756,1.2754,1.2751,1.2744,1.276,1.2767,1.277,1.2732,1.2732,1.2732,1.2732,0,0,1.2598,1.262,1.2624,1.2633,1.265,1.2662,1.2679,1.2695,1.2703,1.2716,1.273,1.2751,1.2749,1.2758,1.2761,1.2771,1.2788,1.2767,1.2768,1.2771,1.2812,1.2814,1.2817,1.2788,1.2789,1.2789,1.2811,0,1.2619,1.2649,1.2655,1.2681,1.2696,1.2698,1.2712,1.2724,1.273,1.2743,1.275,1.2765,1.2761,1.2766,1.2777,1.2784,1.2797,1.2783,1.28,1.2801,1.2797,1.2821,1.2823,1.2842,1.2814,1.2814,1.2814,0,1.2648,1.2662,1.2689,1.2704,1.2711,1.2724,1.2739,1.2752,1.2764,1.2769,1.2779,1.2781,1.2798,1.279,1.2812,1.2803,1.281,1.2815,1.2816,1.2817,1.2809,1.2823,1.2849,1.2852,1.2819,1.2819,1.2818,0,1.2661,1.2686,1.2706,1.2713,1.2731,1.274,1.2748,1.276,1.277,1.2783,1.2789,1.2803,1.2811,1.2822,1.2828,1.2822,1.285,1.2843,1.2853,1.2853,1.2859,1.2859,1.2886,1.2864,1.2864,1.2864,1.2864,0,1.2684,1.27,1.2712,1.2724,1.2742,1.2749,1.2767,1.2774,1.2785,1.2798,1.2801,1.2813,1.282,1.2833,1.2837,1.2855,1.2858,1.2862,1.2863,1.2862,1.2861,1.2866,1.2865,1.2865,1.2865,1.2865,1.2865,0,1.2701,1.271,1.2731,1.2746,1.275,1.2763,1.2776,1.2787,1.2794,1.281,1.2814,1.2825,1.284,1.2847,1.2866,1.2869,1.2888,1.2889,1.2884,1.2885,1.2895,1.2893,1.2926,1.2931,1.2906,1.2906,1.2907,0,1.2715,1.2728,1.2745,1.2754,1.2762,1.2777,1.2786,1.2793,1.2803,1.2819,1.2828,1.2843,1.2856,1.288,1.2889,1.2903,1.2903,1.2914,1.2905,1.2903,1.2903,1.2902,1.2903,1.2915,1.2915,1.2916,1.2916,0,1.2739,1.2743,1.2757,1.2773,1.2784,1.2797,1.2809,1.2816,1.2825,1.2835,1.2851,1.2861,1.288,1.2895,1.291,1.2917,1.2918,1.2918,1.2921,1.292,1.2917,1.2919,1.2888,1.2918,1.2917,1.2917,1.2917,1.2917,1.2755,1.2766,1.278,1.2795,1.2805,1.2817,1.2828,1.2836,1.285,1.2866,1.2869,1.2886,1.2898,1.2918,1.2926,1.2938,1.2936,1.294,1.2941,1.2942,1.2943,1.2915,1.2941,1.2941,1.2941,1.2941,1.2941,0,1.2779,1.2788,1.2802,1.2819,1.2831,1.2831,1.2845,1.2855,1.2869,1.2881,1.2893,1.2911,1.2926,1.2936,1.295,1.2958,1.2959,1.2962,1.2961,1.2963,1.2944,1.294,1.2961,1.2961,1.2961,1.2961,1.2961,1.2961,1.2793,1.2812,1.2817,1.2841,1.2849,1.2866,1.2874,1.2884,1.2893,1.2913,1.2925,1.2932,1.2942,1.2958,1.2971,1.2973,1.2978,1.2981,1.2984,1.2966,1.2964,1.2962,1.2958,1.2982,1.2982,1.3001,1.3001,1.3001]}]]